Tracking 28790 objects as of 19-Apr-2024
HD Live streaming from Space Station
objects crossing your sky now

NOAA 13

Track NOAA 13 now!
10-day predictions
NOAA 13 is classified as:


NORAD ID: 22739
Int'l Code: 1993-050A
Perigee: 849.4 km
Apogee: 861.9 km
Inclination: 98.6 °
Period: 101.9 minutes
Semi major axis: 7226 km
RCS: 5.23 m2 (large)
Launch date: August 9, 1993
Source: United States (US)
Launch site: AIR FORCE WESTERN TEST RANGE (AFWTR)

Uplink (MHz):
Downlink (MHz):
Beacon (MHz):
Mode:
Call sign:
Status:

Your satellite tracking list
Your tracking list is empty




NASA's NSSDC Master Catalog

Two Line Element Set (TLE):
1 22739U 93050A   24109.88477352  .00000479  00000-0  27826-3 0  9998
2 22739  98.6007  69.6608 0008655 218.0546 142.0016 14.13177434582116
Source of the keplerian elements: AFSPC